Weather Roundup
Issued by NWS Chicago, IL

Home | Current Version | Previous Version | Text Only | Print | Product List | Glossary Off
Versions: 1 2 3 4 5 6 7 8 9 10 11 12 13 14 15 16 17 18 19 20 21 22 23 24 25 26 27 28 29 30 31 32 33 34 35 36 37 38 39 40 41 42 43 44 45 46 47 48 49 50

000
NZUS59 KLOT 041400
HRRLOT

CHICAGO AREA WEATHER ROUNDUP
NATIONAL WEATHER SERVICE CHICAGO/ROMEOVILLE IL
800 AM CST WED MAR 04 2015

NOTE: "FAIR" INDICATES FEW OR NO CLOUDS BELOW 12,000 FEET WITH NO
SIGNIFICANT WEATHER AND/OR OBSTRUCTIONS TO VISIBILITY.

* THESE STATIONS ARE NOT UNDER NWS QUALITY CONTROL. THEY ALSO MAY NOT
  REPORT WEATHER SUCH AS PRECIPITATION OR FOG.

ILZ005-006-012>014-019>023-041500-
NORTHEAST ILLINOIS

CITY           SKY/WX    TMP DP  RH WIND       PRES   REMARKS
OHARE          PTSUNNY   17  10  74 NW10      30.04R WCI   5
MIDWAY         PTSUNNY   20  12  71 NW16      30.04R WCI   6
AURORA         MOSUNNY   14   6  70 NW18      30.07R WCI  -3
LANSING*       SUNNY     21  14  73 NW10      30.04R WCI  10
WAUKEGAN       CLOUDY    17   7  64 NW12G20   30.05R WCI   4
DUPAGE AIRPORT CLOUDY    15   7  70 NW16      30.05R WCI  -1
WHEELING       CLOUDY    18  10  71 NW13      30.06R WCI   5
NORTHERLY IS     N/A     21  13  71 NW8         N/A  WCI  12
$$

WIZ051-052-058>065-066-070>072-041500-
SOUTHEAST WISCONSIN

CITY           SKY/WX    TMP DP  RH WIND       PRES   REMARKS
MILWAUKEE      PTSUNNY   14   0  53 NW16      30.05R WCI  -2
KENOSHA*       CLOUDY    16   5  62 NW13      30.05R WCI   2
RACINE*        CLOUDY    16   5  62 NW10G16   30.06R WCI   4
WAUKESHA       MOSUNNY   10   0  61 NW12G23   30.05R WCI  -4
$$

INZ001>003-010>013-019-020-041500-
NORTHWEST INDIANA

CITY           SKY/WX    TMP DP  RH WIND       PRES   REMARKS
GARY*          PTSUNNY   23  12  63 NW21      30.04R WCI   8
MICHIGAN CITY* NOT AVBL
RENSSELAER*    NOT AVBL
$$

LMZ740>746-041500-
SOUTHERN LAKE MICHIGAN

STATION/POSITION TIME  SKY/WX   TEMP WIND        PRES    VSBY
                                AIR  DIR/SP/G
                 (UTC)          (F)  (DEG/KT/KT) (MB)    (MI)
HARRISON CRIB    1300            21  310/ 17/ 20   N/A
BURNHAM HARBOR   1400            21  290/  4/ 13   N/A
CALUMET HARBOR   1300            21  290/ 12/ 17 1016.0R
BURNS HARBOR     NOT AVBL
MICHIGAN CITY    1300            25  280/ 16/ 20   N/A
$$

ABBREVIATIONS USED IN REMARKS
   TC - TEMPERATURE IN CELSIUS
  WCI - WIND CHILL INDEX
   HX - HEAT INDEX
  VSB - VISIBILITY
$$



USA.gov is the U.S. government's official web portal to all federal, state and local government web resources and services.